Time,TemperatureF,DewpointF,PressureIn,WindDirection,WindDirectionDegrees,WindSpeedMPH,WindSpeedGustMPH,Humidity,HourlyPrecipIn,Conditions,Clouds,dailyrainin,SoftwareType,DateUTC
2013-05-26 00:01:00,52.5,41.1,30.27,WNW,292,0.0,0.0,65,0.00,CLR,,0.00,WeatherDisplay:10.37,2013-05-26 04:01:00,
2013-05-26 00:06:00,52.3,41.3,30.27,WNW,292,0.0,0.0,66,0.00,CLR,,0.00,WeatherDisplay:10.37,2013-05-26 04:06:00,
2013-05-26 00:11:00,52.2,40.7,30.24,WNW,292,0.0,0.0,65,0.00,CLR,,0.00,WeatherDisplay:10.37,2013-05-26 04:11:00,
2013-05-26 00:16:00,51.8,40.8,30.24,WNW,292,1.4,1.4,66,0.00,CLR,,0.00,WeatherDisplay:10.37,2013-05-26 04:16:00,
2013-05-26 00:21:00,51.6,40.6,30.24,WNW,292,0.0,0.0,66,0.00,CLR,,0.00,WeatherDisplay:10.37,2013-05-26 04:21:00,
2013-05-26 00:26:00,51.6,40.6,30.27,WNW,292,0.0,0.0,66,0.00,CLR,,0.00,WeatherDisplay:10.37,2013-05-26 04:26:00,
2013-05-26 00:31:00,51.4,40.8,30.27,WNW,292,2.0,2.0,67,0.00,CLR,,0.00,WeatherDisplay:10.37,2013-05-26 04:31:00,
2013-05-26 00:36:00,51.6,41.0,30.27,WNW,292,0.0,0.0,67,0.00,CLR,,0.00,WeatherDisplay:10.37,2013-05-26 04:36:00,
2013-05-26 00:41:00,51.3,40.7,30.24,WNW,292,0.0,1.2,67,0.00,CLR,,0.00,WeatherDisplay:10.37,2013-05-26 04:41:00,
2013-05-26 00:46:00,51.1,40.5,30.24,WNW,292,0.9,1.2,67,0.00,CLR,,0.00,WeatherDisplay:10.37,2013-05-26 04:46:00,
2013-05-26 00:51:00,51.1,40.9,30.24,WNW,292,0.0,0.0,68,0.00,CLR,,0.00,WeatherDisplay:10.37,2013-05-26 04:51:00,
2013-05-26 00:56:00,50.9,40.7,30.24,WNW,292,0.0,1.4,68,0.00,CLR,,0.00,WeatherDisplay:10.37,2013-05-26 04:56:00,
2013-05-26 01:01:00,50.7,40.9,30.24,WNW,292,0.0,0.0,69,0.00,CLR,,0.00,WeatherDisplay:10.37,2013-05-26 05:01:00,
2013-05-26 01:06:00,50.4,40.6,30.24,WNW,292,1.2,1.2,69,0.00,CLR,,0.00,WeatherDisplay:10.37,2013-05-26 05:06:00,
2013-05-26 01:11:00,50.4,40.9,30.27,WNW,292,0.0,1.2,70,0.00,CLR,,0.00,WeatherDisplay:10.37,2013-05-26 05:11:00,
2013-05-26 01:16:00,50.2,40.8,30.27,WNW,292,0.0,0.0,70,0.00,CLR,,0.00,WeatherDisplay:10.37,2013-05-26 05:16:00,
2013-05-26 01:21:00,50.2,41.1,30.27,WNW,292,0.0,0.0,71,0.00,CLR,,0.00,WeatherDisplay:10.37,2013-05-26 05:21:00,
2013-05-26 01:26:00,50.0,41.0,30.27,WNW,292,0.0,0.0,71,0.00,CLR,,0.00,WeatherDisplay:10.37,2013-05-26 05:26:00,
2013-05-26 01:31:00,49.8,41.2,30.27,WNW,292,0.0,0.0,72,0.00,CLR,,0.00,WeatherDisplay:10.37,2013-05-26 05:31:00,
2013-05-26 01:36:00,49.8,40.8,30.27,WNW,292,0.0,0.0,71,0.00,CLR,,0.00,WeatherDisplay:10.37,2013-05-26 05:36:00,
2013-05-26 01:41:00,49.6,41.7,30.27,WNW,292,0.0,0.0,74,0.00,CLR,,0.00,WeatherDisplay:10.37,2013-05-26 05:41:00,
2013-05-26 01:46:00,49.5,41.9,30.27,WNW,292,0.0,0.0,75,0.00,CLR,,0.00,WeatherDisplay:10.37,2013-05-26 05:46:00,
2013-05-26 01:51:00,49.5,41.9,30.27,WNW,292,0.0,0.0,75,0.00,CLR,,0.00,WeatherDisplay:10.37,2013-05-26 05:51:00,
2013-05-26 01:56:00,49.6,42.4,30.24,WNW,292,1.6,2.3,76,0.00,CLR,,0.00,WeatherDisplay:10.37,2013-05-26 05:56:00,
2013-05-26 02:01:00,49.6,43.1,30.24,WNW,292,0.0,0.0,78,0.00,CLR,,0.00,WeatherDisplay:10.37,2013-05-26 06:01:00,
2013-05-26 02:06:00,49.6,42.7,30.24,WNW,292,0.0,1.2,77,0.00,CLR,,0.00,WeatherDisplay:10.37,2013-05-26 06:06:00,
2013-05-26 02:11:00,49.6,43.1,30.27,WNW,292,0.0,0.0,78,0.00,CLR,,0.00,WeatherDisplay:10.37,2013-05-26 06:11:00,
2013-05-26 02:16:00,49.6,43.1,30.27,WNW,292,0.0,0.0,78,0.00,CLR,,0.00,WeatherDisplay:10.37,2013-05-26 06:16:00,
2013-05-26 02:21:00,49.5,42.5,30.27,WNW,292,0.0,0.0,77,0.00,CLR,,0.00,WeatherDisplay:10.37,2013-05-26 06:21:00,
2013-05-26 02:26:00,49.5,42.5,30.27,WNW,292,0.0,0.0,77,0.00,CLR,,0.00,WeatherDisplay:10.37,2013-05-26 06:26:00,
2013-05-26 02:31:00,49.3,42.4,30.27,WNW,292,0.0,0.0,77,0.00,CLR,,0.00,WeatherDisplay:10.37,2013-05-26 06:31:00,
2013-05-26 02:36:00,49.3,42.4,30.27,WNW,292,0.0,0.0,77,0.00,CLR,,0.00,WeatherDisplay:10.37,2013-05-26 06:36:00,
2013-05-26 02:41:00,49.3,42.7,30.27,WNW,292,0.0,0.0,78,0.00,CLR,,0.00,WeatherDisplay:10.37,2013-05-26 06:41:00,
2013-05-26 02:46:00,49.3,42.7,30.27,WNW,292,0.0,0.0,78,0.00,CLR,,0.00,WeatherDisplay:10.37,2013-05-26 06:46:00,
2013-05-26 02:51:00,49.1,42.2,30.27,WNW,292,0.0,0.0,77,0.00,CLR,,0.00,WeatherDisplay:10.37,2013-05-26 06:51:00,
2013-05-26 02:56:00,49.1,41.9,30.27,WNW,292,0.0,0.0,76,0.00,CLR,,0.00,WeatherDisplay:10.37,2013-05-26 06:56:00,
2013-05-26 03:01:00,48.9,42.0,30.27,WNW,292,0.0,0.0,77,0.00,CLR,,0.00,WeatherDisplay:10.37,2013-05-26 07:01:00,
2013-05-26 03:06:00,48.9,42.4,30.27,WNW,292,0.0,0.0,78,0.00,CLR,,0.00,WeatherDisplay:10.37,2013-05-26 07:06:00,
2013-05-26 03:11:00,48.9,42.7,30.24,WNW,292,0.0,0.0,79,0.00,CLR,,0.00,WeatherDisplay:10.37,2013-05-26 07:11:00,
2013-05-26 03:16:00,48.9,42.4,30.24,WNW,292,0.0,0.0,78,0.00,CLR,,0.00,WeatherDisplay:10.37,2013-05-26 07:16:00,
2013-05-26 03:21:00,48.9,43.0,30.24,WNW,292,0.0,0.0,80,0.00,CLR,,0.00,WeatherDisplay:10.37,2013-05-26 07:21:00,
2013-05-26 03:26:00,48.9,43.3,30.24,WNW,292,0.0,0.0,81,0.00,CLR,,0.00,WeatherDisplay:10.37,2013-05-26 07:26:00,
2013-05-26 03:31:00,48.7,43.5,30.24,WNW,292,0.0,0.0,82,0.00,CLR,,0.00,WeatherDisplay:10.37,2013-05-26 07:31:00,
2013-05-26 03:36:00,48.7,43.5,30.24,WNW,292,0.0,0.0,82,0.00,CLR,,0.00,WeatherDisplay:10.37,2013-05-26 07:36:00,
2013-05-26 03:41:00,48.9,43.7,30.24,WNW,292,0.0,1.2,82,0.00,CLR,,0.00,WeatherDisplay:10.37,2013-05-26 07:41:00,
2013-05-26 03:46:00,48.9,43.7,30.24,WNW,292,0.0,0.0,82,0.00,CLR,,0.00,WeatherDisplay:10.37,2013-05-26 07:46:00,
2013-05-26 03:51:00,48.9,44.0,30.24,WNW,292,0.0,0.0,83,0.00,CLR,,0.00,WeatherDisplay:10.37,2013-05-26 07:51:00,
2013-05-26 03:56:00,48.9,43.7,30.21,WNW,292,0.0,0.0,82,0.00,CLR,,0.00,WeatherDisplay:10.37,2013-05-26 07:56:00,
2013-05-26 04:01:00,49.1,44.2,30.21,WNW,292,0.0,0.0,83,0.00,CLR,,0.00,WeatherDisplay:10.37,2013-05-26 08:01:00,
2013-05-26 04:06:00,49.3,44.6,30.21,WNW,292,0.0,0.0,84,0.00,CLR,,0.00,WeatherDisplay:10.37,2013-05-26 08:06:00,
2013-05-26 04:11:00,49.5,44.8,30.21,WNW,292,0.0,0.0,84,0.00,CLR,,0.00,WeatherDisplay:10.37,2013-05-26 08:11:00,
2013-05-26 04:16:00,49.5,44.8,30.21,WNW,292,0.0,0.0,84,0.00,CLR,,0.00,WeatherDisplay:10.37,2013-05-26 08:16:00,
2013-05-26 04:21:00,49.5,44.8,30.21,WNW,292,0.0,0.0,84,0.00,CLR,,0.00,WeatherDisplay:10.37,2013-05-26 08:21:00,
2013-05-26 04:26:00,49.5,44.8,30.24,WNW,292,0.0,0.0,84,0.00,CLR,,0.00,WeatherDisplay:10.37,2013-05-26 08:26:00,
2013-05-26 04:31:00,49.6,45.0,30.24,WNW,292,0.0,0.0,84,0.00,CLR,,0.00,WeatherDisplay:10.37,2013-05-26 08:31:00,
2013-05-26 04:36:00,49.6,45.0,30.24,WNW,292,0.0,0.0,84,0.00,CLR,,0.00,WeatherDisplay:10.37,2013-05-26 08:36:00,
2013-05-26 04:41:00,50.0,45.4,30.27,WNW,292,0.0,0.0,84,0.00,CLR,,0.00,WeatherDisplay:10.37,2013-05-26 08:41:00,
2013-05-26 04:46:00,50.2,45.5,30.27,WNW,292,0.0,0.0,84,0.00,CLR,,0.00,WeatherDisplay:10.37,2013-05-26 08:46:00,
2013-05-26 04:52:00,50.4,45.7,30.27,WNW,292,0.0,0.0,84,0.00,CLR,,0.00,WeatherDisplay:10.37,2013-05-26 08:52:00,
2013-05-26 04:57:00,50.4,45.7,30.24,WNW,292,0.0,0.0,84,0.00,CLR,,0.00,WeatherDisplay:10.37,2013-05-26 08:57:00,
2013-05-26 05:02:00,50.5,45.9,30.24,WNW,292,0.0,0.0,84,0.00,CLR,,0.00,WeatherDisplay:10.37,2013-05-26 09:02:00,
2013-05-26 05:07:00,50.5,45.6,30.24,WNW,292,0.0,0.0,83,0.00,CLR,,0.00,WeatherDisplay:10.37,2013-05-26 09:07:00,
2013-05-26 05:12:00,50.7,46.1,30.24,WNW,292,0.0,0.0,84,0.00,CLR,,0.00,WeatherDisplay:10.37,2013-05-26 09:12:00,
2013-05-26 05:17:00,50.9,46.6,30.24,WNW,292,0.0,0.0,85,0.00,CLR,,0.00,WeatherDisplay:10.37,2013-05-26 09:17:00,
2013-05-26 05:22:00,51.1,46.4,30.24,WNW,292,0.0,0.0,84,0.00,CLR,,0.00,WeatherDisplay:10.37,2013-05-26 09:22:00,
2013-05-26 05:27:00,51.3,46.6,30.27,WNW,292,0.0,0.0,84,0.00,CLR,,0.00,WeatherDisplay:10.37,2013-05-26 09:27:00,
2013-05-26 05:32:00,51.3,46.6,30.27,WNW,292,0.0,0.0,84,0.00,CLR,,0.00,WeatherDisplay:10.37,2013-05-26 09:32:00,
2013-05-26 05:37:00,51.4,46.4,30.27,WNW,292,0.0,0.0,83,0.00,CLR,,0.00,WeatherDisplay:10.37,2013-05-26 09:37:00,
2013-05-26 05:42:00,51.4,46.8,30.27,WNW,292,0.0,0.0,84,0.00,CLR,,0.00,WeatherDisplay:10.37,2013-05-26 09:42:00,
2013-05-26 05:47:00,51.6,46.9,30.27,WNW,292,0.0,0.0,84,0.00,CLR,,0.00,WeatherDisplay:10.37,2013-05-26 09:47:00,
2013-05-26 05:52:00,51.4,46.4,30.27,WNW,292,0.0,0.0,83,0.00,CLR,,0.00,WeatherDisplay:10.37,2013-05-26 09:52:00,
2013-05-26 05:57:00,51.4,46.4,30.27,WNW,292,0.0,0.0,83,0.00,CLR,,0.00,WeatherDisplay:10.37,2013-05-26 09:57:00,
2013-05-26 06:02:00,51.6,46.3,30.27,WNW,292,0.0,0.0,82,0.00,CLR,,0.00,WeatherDisplay:10.37,2013-05-26 10:02:00,
2013-05-26 06:07:00,51.6,46.3,30.27,WNW,292,0.9,1.4,82,0.00,CLR,,0.00,WeatherDisplay:10.37,2013-05-26 10:07:00,
2013-05-26 06:12:00,51.8,46.2,30.27,WNW,292,1.2,1.4,81,0.00,CLR,,0.00,WeatherDisplay:10.37,2013-05-26 10:12:00,
2013-05-26 06:17:00,51.8,45.8,30.27,WNW,292,1.2,1.2,80,0.00,CLR,,0.00,WeatherDisplay:10.37,2013-05-26 10:17:00,
2013-05-26 06:22:00,52.0,46.0,30.27,WNW,292,0.0,0.0,80,0.00,CLR,,0.00,WeatherDisplay:10.37,2013-05-26 10:22:00,
2013-05-26 06:27:00,52.0,45.7,30.24,WNW,292,0.0,0.0,79,0.00,CLR,,0.00,WeatherDisplay:10.37,2013-05-26 10:27:00,
2013-05-26 06:32:00,52.0,45.7,30.24,WNW,292,0.0,0.0,79,0.00,CLR,,0.00,WeatherDisplay:10.37,2013-05-26 10:32:00,
2013-05-26 06:37:00,52.0,45.7,30.24,WNW,292,0.0,0.0,79,0.00,CLR,,0.00,WeatherDisplay:10.37,2013-05-26 10:37:00,
2013-05-26 06:42:00,52.2,45.8,30.27,WNW,292,0.0,0.0,79,0.00,CLR,,0.00,WeatherDisplay:10.37,2013-05-26 10:42:00,
2013-05-26 06:47:00,52.2,45.5,30.27,WNW,292,0.0,0.0,78,0.00,CLR,,0.00,WeatherDisplay:10.37,2013-05-26 10:47:00,
2013-05-26 06:52:00,52.3,45.7,30.27,WNW,292,0.0,0.0,78,0.00,CLR,,0.00,WeatherDisplay:10.37,2013-05-26 10:52:00,
2013-05-26 06:57:00,52.5,46.5,30.27,WNW,292,0.0,0.0,80,0.00,CLR,,0.00,WeatherDisplay:10.37,2013-05-26 10:57:00,
2013-05-26 07:02:00,52.5,47.2,30.27,WNW,292,0.0,0.0,82,0.00,CLR,,0.00,WeatherDisplay:10.37,2013-05-26 11:02:00,
2013-05-26 07:07:00,52.9,47.9,30.27,WNW,292,0.0,0.0,83,0.00,CLR,,0.00,WeatherDisplay:10.37,2013-05-26 11:07:00,
2013-05-26 07:12:00,53.1,47.7,30.27,WNW,292,0.0,0.0,82,0.00,CLR,,0.00,WeatherDisplay:10.37,2013-05-26 11:12:00,
2013-05-26 07:17:00,53.1,48.4,30.27,WNW,292,1.4,1.4,84,0.00,CLR,,0.00,WeatherDisplay:10.37,2013-05-26 11:17:00,
2013-05-26 07:22:00,53.2,48.2,30.27,WNW,292,0.0,0.0,83,0.00,CLR,,0.00,WeatherDisplay:10.37,2013-05-26 11:22:00,
2013-05-26 07:27:00,53.6,48.2,30.27,WNW,292,0.0,0.0,82,0.00,CLR,,0.00,WeatherDisplay:10.37,2013-05-26 11:27:00,
2013-05-26 07:32:00,54.1,48.4,30.27,WNW,292,0.0,0.0,81,0.00,CLR,,0.00,WeatherDisplay:10.37,2013-05-26 11:32:00,
2013-05-26 07:37:00,54.5,48.5,30.27,WNW,292,0.0,0.0,80,0.00,CLR,,0.00,WeatherDisplay:10.37,2013-05-26 11:37:00,
2013-05-26 07:42:00,54.9,48.8,30.27,WNW,292,0.0,0.0,80,0.00,CLR,,0.00,WeatherDisplay:10.37,2013-05-26 11:42:00,
2013-05-26 07:47:00,55.4,49.0,30.27,WNW,292,0.0,1.2,79,0.00,CLR,,0.00,WeatherDisplay:10.37,2013-05-26 11:47:00,
2013-05-26 07:52:00,56.1,49.7,30.30,WNW,292,0.0,0.0,79,0.00,CLR,,0.00,WeatherDisplay:10.37,2013-05-26 11:52:00,
2013-05-26 07:57:00,56.5,49.4,30.30,WNW,292,0.9,1.6,77,0.00,CLR,,0.00,WeatherDisplay:10.37,2013-05-26 11:57:00,
2013-05-26 08:02:00,56.8,49.4,30.30,WNW,292,1.2,1.2,76,0.00,CLR,,0.00,WeatherDisplay:10.37,2013-05-26 12:02:00,
2013-05-26 08:07:00,57.2,48.6,30.30,WNW,292,1.6,1.6,73,0.00,CLR,,0.00,WeatherDisplay:10.37,2013-05-26 12:07:00,
2013-05-26 08:12:00,57.2,47.9,30.27,WNW,292,1.2,1.2,71,0.00,CLR,,0.00,WeatherDisplay:10.37,2013-05-26 12:12:00,
2013-05-26 08:17:00,57.6,48.6,30.27,WNW,292,0.0,0.0,72,0.00,CLR,,0.00,WeatherDisplay:10.37,2013-05-26 12:17:00,
2013-05-26 08:22:00,57.9,48.9,30.27,WNW,292,0.0,0.0,72,0.00,CLR,,0.00,WeatherDisplay:10.37,2013-05-26 12:22:00,
2013-05-26 08:27:00,58.5,48.7,30.30,WNW,292,1.2,2.3,70,0.00,CLR,,0.00,WeatherDisplay:10.37,2013-05-26 12:27:00,
2013-05-26 08:32:00,58.5,47.9,30.30,WNW,292,1.4,2.3,68,0.00,CLR,,0.00,WeatherDisplay:10.37,2013-05-26 12:32:00,
2013-05-26 08:37:00,58.8,48.7,30.30,WNW,292,0.0,2.3,69,0.00,CLR,,0.00,WeatherDisplay:10.37,2013-05-26 12:37:00,
2013-05-26 08:42:00,59.2,48.6,30.30,WNW,292,1.4,1.6,68,0.00,CLR,,0.00,WeatherDisplay:10.37,2013-05-26 12:42:00,
2013-05-26 08:47:00,59.9,48.5,30.30,WNW,292,2.0,2.4,66,0.00,CLR,,0.00,WeatherDisplay:10.37,2013-05-26 12:47:00,
2013-05-26 08:52:00,61.3,49.1,30.30,SW,225,1.4,1.4,64,0.00,CLR,,0.00,WeatherDisplay:10.37,2013-05-26 12:52:00,
2013-05-26 08:57:00,63.3,50.1,30.30,WSW,248,0.9,1.2,62,0.00,CLR,,0.00,WeatherDisplay:10.37,2013-05-26 12:57:00,
2013-05-26 09:02:00,63.7,47.7,30.30,SSE,158,1.6,1.6,56,0.00,CLR,,0.00,WeatherDisplay:10.37,2013-05-26 13:02:00,
2013-05-26 09:07:00,64.4,47.9,30.30,SW,225,2.0,2.3,55,0.00,CLR,,0.00,WeatherDisplay:10.37,2013-05-26 13:07:00,
2013-05-26 09:12:00,64.6,47.6,30.30,SE,135,0.0,1.2,54,0.00,CLR,,0.00,WeatherDisplay:10.37,2013-05-26 13:12:00,
2013-05-26 09:17:00,65.1,48.1,30.30,WNW,292,1.2,1.4,54,0.00,CLR,,0.00,WeatherDisplay:10.37,2013-05-26 13:17:00,
2013-05-26 09:22:00,65.5,47.9,30.30,WSW,248,2.0,2.9,53,0.00,CLR,,0.00,WeatherDisplay:10.37,2013-05-26 13:22:00,
2013-05-26 09:27:00,66.0,48.9,30.30,WSW,248,1.4,2.3,54,0.00,CLR,,0.00,WeatherDisplay:10.37,2013-05-26 13:27:00,
2013-05-26 09:32:00,66.0,47.9,30.30,NNW,338,0.0,0.0,52,0.00,CLR,,0.00,WeatherDisplay:10.37,2013-05-26 13:32:00,
2013-05-26 09:37:00,65.7,46.5,30.30,West,270,2.4,3.5,50,0.00,CLR,,0.00,WeatherDisplay:10.37,2013-05-26 13:37:00,
2013-05-26 09:42:00,65.7,46.0,30.30,SW,225,2.9,4.7,49,0.00,CLR,,0.00,WeatherDisplay:10.37,2013-05-26 13:42:00,
2013-05-26 09:47:00,65.8,45.6,30.30,NW,315,1.6,2.3,48,0.00,CLR,,0.00,WeatherDisplay:10.37,2013-05-26 13:47:00,
2013-05-26 09:52:00,67.3,47.5,30.33,West,270,0.0,2.3,49,0.00,CLR,,0.00,WeatherDisplay:10.37,2013-05-26 13:52:00,
2013-05-26 09:57:00,68.2,48.3,30.33,WSW,248,1.2,3.5,49,0.00,CLR,,0.00,WeatherDisplay:10.37,2013-05-26 13:57:00,
2013-05-26 10:02:00,67.6,46.1,30.33,NW,315,2.0,4.6,46,0.00,CLR,,0.00,WeatherDisplay:10.37,2013-05-26 14:02:00,
2013-05-26 10:07:00,68.9,47.8,30.30,SW,225,2.0,2.3,47,0.00,CLR,,0.00,WeatherDisplay:10.37,2013-05-26 14:07:00,
2013-05-26 10:12:00,70.0,47.1,30.30,WSW,248,2.2,3.5,44,0.00,CLR,,0.00,WeatherDisplay:10.37,2013-05-26 14:12:00,
2013-05-26 10:17:00,70.3,46.8,30.30,SW,225,2.4,2.9,43,0.00,CLR,,0.00,WeatherDisplay:10.37,2013-05-26 14:17:00,
2013-05-26 10:22:00,69.3,45.8,30.30,NW,315,0.0,1.2,43,0.00,CLR,,0.00,WeatherDisplay:10.37,2013-05-26 14:22:00,
2013-05-26 10:27:00,68.5,44.5,30.30,WNW,292,1.4,3.5,42,0.00,CLR,,0.00,WeatherDisplay:10.37,2013-05-26 14:27:00,
2013-05-26 10:32:00,68.5,45.1,30.30,NW,315,0.0,0.0,43,0.00,CLR,,0.00,WeatherDisplay:10.37,2013-05-26 14:32:00,
2013-05-26 10:37:00,68.4,44.4,30.30,East,90,0.9,1.2,42,0.00,CLR,,0.00,WeatherDisplay:10.37,2013-05-26 14:37:00,
2013-05-26 10:42:00,68.2,45.4,30.30,WSW,248,0.0,1.2,44,0.00,CLR,,0.00,WeatherDisplay:10.37,2013-05-26 14:42:00,
2013-05-26 10:47:00,68.5,45.8,30.30,East,90,0.0,2.4,44,0.00,CLR,,0.00,WeatherDisplay:10.37,2013-05-26 14:47:00,
2013-05-26 10:52:00,67.6,44.3,30.30,SSW,202,1.6,2.3,43,0.00,CLR,,0.00,WeatherDisplay:10.37,2013-05-26 14:52:00,
2013-05-26 10:57:00,68.0,44.0,30.30,WNW,292,2.2,3.5,42,0.00,CLR,,0.00,WeatherDisplay:10.37,2013-05-26 14:57:00,
2013-05-26 11:02:00,68.2,44.8,30.30,West,270,1.2,2.3,43,0.00,CLR,,0.00,WeatherDisplay:10.37,2013-05-26 15:02:00,
2013-05-26 11:07:00,69.4,46.0,30.30,ESE,112,0.0,2.6,43,0.00,CLR,,0.00,WeatherDisplay:10.37,2013-05-26 15:07:00,
2013-05-26 11:12:00,71.2,45.0,30.30,ENE,68,2.2,2.3,39,0.00,CLR,,0.00,WeatherDisplay:10.37,2013-05-26 15:12:00,
2013-05-26 11:17:00,72.5,46.1,30.30,WNW,292,1.4,1.4,39,0.00,CLR,,0.00,WeatherDisplay:10.37,2013-05-26 15:17:00,
2013-05-26 11:22:00,73.6,45.7,30.30,West,270,2.0,4.0,37,0.00,CLR,,0.00,WeatherDisplay:10.37,2013-05-26 15:22:00,
2013-05-26 11:27:00,74.8,46.8,30.30,NW,315,0.0,1.2,37,0.00,CLR,,0.00,WeatherDisplay:10.37,2013-05-26 15:27:00,
2013-05-26 11:32:00,75.9,45.5,30.30,ENE,68,2.0,3.5,34,0.00,CLR,,0.00,WeatherDisplay:10.37,2013-05-26 15:32:00,
2013-05-26 11:37:00,75.9,45.5,30.30,WSW,248,2.2,2.9,34,0.00,CLR,,0.00,WeatherDisplay:10.37,2013-05-26 15:37:00,
2013-05-26 11:42:00,75.9,45.5,30.30,North,0,1.2,1.6,34,0.00,CLR,,0.00,WeatherDisplay:10.37,2013-05-26 15:42:00,
2013-05-26 11:47:00,75.6,45.2,30.30,North,0,0.0,1.2,34,0.00,CLR,,0.00,WeatherDisplay:10.37,2013-05-26 15:47:00,
2013-05-26 11:52:00,76.8,46.3,30.30,NW,315,1.2,2.3,34,0.00,CLR,,0.00,WeatherDisplay:10.37,2013-05-26 15:52:00,
2013-05-26 11:57:00,77.2,46.6,30.30,WNW,292,1.4,1.4,34,0.00,CLR,,0.00,WeatherDisplay:10.37,2013-05-26 15:57:00,
2013-05-26 12:02:00,76.6,45.4,30.30,South,180,1.6,2.3,33,0.00,CLR,,0.00,WeatherDisplay:10.37,2013-05-26 16:02:00,
2013-05-26 12:07:00,76.6,44.6,30.27,SW,225,1.6,3.5,32,0.00,CLR,,0.00,WeatherDisplay:10.37,2013-05-26 16:07:00,
2013-05-26 12:12:00,77.0,45.7,30.27,NE,45,0.9,1.6,33,0.00,CLR,,0.00,WeatherDisplay:10.37,2013-05-26 16:12:00,
2013-05-26 12:17:00,77.2,45.8,30.27,North,0,2.6,4.6,33,0.00,CLR,,0.00,WeatherDisplay:10.37,2013-05-26 16:17:00,
2013-05-26 12:22:00,76.1,44.1,30.27,West,270,3.1,5.8,32,0.00,CLR,,0.00,WeatherDisplay:10.37,2013-05-26 16:22:00,
2013-05-26 12:27:00,77.5,46.2,30.27,South,180,1.6,2.3,33,0.00,CLR,,0.00,WeatherDisplay:10.37,2013-05-26 16:27:00,
2013-05-26 12:32:00,77.5,45.3,30.27,SSW,202,1.2,2.9,32,0.00,CLR,,0.00,WeatherDisplay:10.37,2013-05-26 16:32:00,
2013-05-26 12:37:00,76.1,43.3,30.27,West,270,5.9,5.9,31,0.00,CLR,,0.00,WeatherDisplay:10.37,2013-05-26 16:37:00,
2013-05-26 12:42:00,74.3,42.5,30.27,SW,225,3.3,4.6,32,0.00,CLR,,0.00,WeatherDisplay:10.37,2013-05-26 16:42:00,
2013-05-26 12:47:00,74.5,43.5,30.27,West,270,2.9,4.6,33,0.00,CLR,,0.00,WeatherDisplay:10.37,2013-05-26 16:47:00,
2013-05-26 12:52:00,74.7,43.6,30.27,SW,225,3.6,4.6,33,0.00,CLR,,0.00,WeatherDisplay:10.37,2013-05-26 16:52:00,
2013-05-26 12:57:00,74.5,42.7,30.27,WSW,248,3.1,6.9,32,0.00,CLR,,0.00,WeatherDisplay:10.37,2013-05-26 16:57:00,
2013-05-26 13:02:00,73.2,41.6,30.27,SW,225,4.0,6.9,32,0.00,CLR,,0.00,WeatherDisplay:10.37,2013-05-26 17:02:00,
2013-05-26 13:07:00,74.8,45.3,30.24,WNW,292,1.6,2.6,35,0.00,CLR,,0.00,WeatherDisplay:10.37,2013-05-26 17:07:00,
2013-05-26 13:12:00,75.4,43.5,30.24,NNE,22,1.4,2.4,32,0.00,CLR,,0.00,WeatherDisplay:10.37,2013-05-26 17:12:00,
2013-05-26 13:17:00,75.0,44.0,30.24,NW,315,1.2,3.5,33,0.00,CLR,,0.00,WeatherDisplay:10.37,2013-05-26 17:17:00,
2013-05-26 13:22:00,75.0,44.0,30.27,SW,225,3.8,6.0,33,0.00,CLR,,0.00,WeatherDisplay:10.37,2013-05-26 17:22:00,
2013-05-26 13:27:00,75.0,44.7,30.27,West,270,2.6,3.5,34,0.00,CLR,,0.00,WeatherDisplay:10.37,2013-05-26 17:27:00,
2013-05-26 13:32:00,75.4,45.1,30.27,NNW,338,2.0,3.1,34,0.00,CLR,,0.00,WeatherDisplay:10.37,2013-05-26 17:32:00,
2013-05-26 13:37:00,75.6,44.4,30.27,North,0,2.4,2.9,33,0.00,CLR,,0.00,WeatherDisplay:10.37,2013-05-26 17:37:00,
2013-05-26 13:42:00,75.6,44.4,30.27,SSW,202,1.2,2.2,33,0.00,CLR,,0.00,WeatherDisplay:10.37,2013-05-26 17:42:00,
2013-05-26 13:47:00,75.9,44.7,30.27,ENE,68,1.4,3.6,33,0.00,CLR,,0.00,WeatherDisplay:10.37,2013-05-26 17:47:00,
2013-05-26 13:52:00,75.4,44.3,30.24,SSW,202,2.4,4.6,33,0.00,CLR,,0.00,WeatherDisplay:10.37,2013-05-26 17:52:00,
2013-05-26 13:57:00,75.9,44.7,30.24,SW,225,0.9,3.1,33,0.00,CLR,,0.00,WeatherDisplay:10.37,2013-05-26 17:57:00,
2013-05-26 14:02:00,75.2,44.1,30.24,WSW,248,3.3,5.8,33,0.00,CLR,,0.00,WeatherDisplay:10.37,2013-05-26 18:02:00,
2013-05-26 14:07:00,75.0,44.0,30.27,WSW,248,3.3,3.5,33,0.00,CLR,,0.00,WeatherDisplay:10.37,2013-05-26 18:07:00,
2013-05-26 14:12:00,75.9,44.7,30.27,West,270,3.6,4.6,33,0.00,CLR,,0.00,WeatherDisplay:10.37,2013-05-26 18:12:00,
2013-05-26 14:17:00,75.9,43.9,30.27,West,270,3.3,4.6,32,0.00,CLR,,0.00,WeatherDisplay:10.37,2013-05-26 18:17:00,
2013-05-26 14:22:00,75.9,43.9,30.27,WNW,292,4.7,5.8,32,0.00,CLR,,0.00,WeatherDisplay:10.37,2013-05-26 18:22:00,
2013-05-26 14:27:00,77.2,45.0,30.27,NNW,338,1.4,3.5,32,0.00,CLR,,0.00,WeatherDisplay:10.37,2013-05-26 18:27:00,
2013-05-26 14:32:00,77.5,45.3,30.27,NNE,22,2.2,2.3,32,0.00,CLR,,0.00,WeatherDisplay:10.37,2013-05-26 18:32:00,
2013-05-26 14:37:00,77.9,45.7,30.24,SSE,158,2.4,3.5,32,0.00,CLR,,0.00,WeatherDisplay:10.37,2013-05-26 18:37:00,
2013-05-26 14:42:00,78.8,46.4,30.24,WSW,248,0.0,2.0,32,0.00,CLR,,0.00,WeatherDisplay:10.37,2013-05-26 18:42:00,
2013-05-26 14:47:00,80.2,48.5,30.24,NNE,22,1.4,2.3,33,0.00,CLR,,0.00,WeatherDisplay:10.37,2013-05-26 18:47:00,
2013-05-26 14:52:00,80.1,47.5,30.24,West,270,1.4,2.6,32,0.00,CLR,,0.00,WeatherDisplay:10.37,2013-05-26 18:52:00,
2013-05-26 14:57:00,79.7,47.2,30.24,West,270,2.0,2.3,32,0.00,CLR,,0.00,WeatherDisplay:10.37,2013-05-26 18:57:00,
2013-05-26 15:02:00,80.2,46.9,30.24,South,180,2.2,3.5,31,0.00,CLR,,0.00,WeatherDisplay:10.37,2013-05-26 19:02:00,
2013-05-26 15:07:00,80.4,47.0,30.24,North,0,1.6,2.3,31,0.00,CLR,,0.00,WeatherDisplay:10.37,2013-05-26 19:07:00,
2013-05-26 15:12:00,80.1,47.5,30.24,West,270,1.4,2.3,32,0.00,CLR,,0.00,WeatherDisplay:10.37,2013-05-26 19:12:00,
2013-05-26 15:17:00,79.9,47.4,30.24,SW,225,1.2,4.6,32,0.00,CLR,,0.00,WeatherDisplay:10.37,2013-05-26 19:17:00,
2013-05-26 15:22:00,79.7,46.4,30.24,South,180,2.9,3.5,31,0.00,CLR,,0.00,WeatherDisplay:10.37,2013-05-26 19:22:00,
2013-05-26 15:27:00,79.9,46.5,30.24,SSE,158,3.3,5.8,31,0.00,CLR,,0.00,WeatherDisplay:10.37,2013-05-26 19:27:00,
2013-05-26 15:32:00,79.2,46.8,30.24,WNW,292,4.5,5.8,32,0.00,CLR,,0.00,WeatherDisplay:10.37,2013-05-26 19:32:00,
2013-05-26 15:37:00,79.7,47.2,30.24,SW,225,1.4,3.3,32,0.00,CLR,,0.00,WeatherDisplay:10.37,2013-05-26 19:37:00,
2013-05-26 15:42:00,79.5,47.1,30.24,North,0,2.2,3.5,32,0.00,CLR,,0.00,WeatherDisplay:10.37,2013-05-26 19:42:00,
2013-05-26 15:48:00,80.8,48.2,30.24,NW,315,1.2,1.2,32,0.00,CLR,,0.00,WeatherDisplay:10.37,2013-05-26 19:48:00,
2013-05-26 15:53:00,81.1,48.5,30.21,South,180,1.2,2.3,32,0.00,CLR,,0.00,WeatherDisplay:10.37,2013-05-26 19:53:00,
2013-05-26 15:58:00,81.1,47.6,30.21,NNW,338,1.2,1.6,31,0.00,CLR,,0.00,WeatherDisplay:10.37,2013-05-26 19:58:00,
2013-05-26 16:03:00,81.0,48.3,30.21,SSE,158,0.0,2.3,32,0.00,CLR,,0.00,WeatherDisplay:10.37,2013-05-26 20:03:00,
2013-05-26 16:08:00,80.4,47.0,30.21,East,90,2.0,2.3,31,0.00,CLR,,0.00,WeatherDisplay:10.37,2013-05-26 20:08:00,
2013-05-26 16:13:00,79.9,46.5,30.21,WSW,248,3.8,6.9,31,0.00,CLR,,0.00,WeatherDisplay:10.37,2013-05-26 20:13:00,
2013-05-26 16:18:00,79.3,46.1,30.21,West,270,4.3,4.6,31,0.00,CLR,,0.00,WeatherDisplay:10.37,2013-05-26 20:18:00,
2013-05-26 16:23:00,80.1,46.7,30.21,ENE,68,1.6,3.5,31,0.00,CLR,,0.00,WeatherDisplay:10.37,2013-05-26 20:23:00,
2013-05-26 16:28:00,80.4,47.9,30.21,SSE,158,2.6,3.5,32,0.00,CLR,,0.00,WeatherDisplay:10.37,2013-05-26 20:28:00,
2013-05-26 16:33:00,80.8,48.2,30.21,East,90,2.0,3.5,32,0.00,CLR,,0.00,WeatherDisplay:10.37,2013-05-26 20:33:00,
2013-05-26 16:38:00,80.2,47.7,30.24,NNW,338,0.0,0.0,32,0.00,CLR,,0.00,WeatherDisplay:10.37,2013-05-26 20:38:00,
2013-05-26 16:43:00,79.5,47.1,30.24,WSW,248,1.6,2.3,32,0.00,CLR,,0.00,WeatherDisplay:10.37,2013-05-26 20:43:00,
2013-05-26 16:48:00,80.2,47.7,30.24,NW,315,1.4,3.6,32,0.00,CLR,,0.00,WeatherDisplay:10.37,2013-05-26 20:48:00,
2013-05-26 16:53:00,79.7,46.4,30.21,NE,45,2.2,3.5,31,0.00,CLR,,0.00,WeatherDisplay:10.37,2013-05-26 20:53:00,
2013-05-26 16:58:00,79.2,46.8,30.21,SE,135,2.0,2.3,32,0.00,CLR,,0.00,WeatherDisplay:10.37,2013-05-26 20:58:00,
2013-05-26 17:03:00,80.1,47.5,30.21,SSE,158,0.0,2.4,32,0.00,CLR,,0.00,WeatherDisplay:10.37,2013-05-26 21:03:00,
2013-05-26 17:08:00,80.8,48.2,30.21,NE,45,0.0,1.2,32,0.00,CLR,,0.00,WeatherDisplay:10.37,2013-05-26 21:08:00,
2013-05-26 17:13:00,79.5,47.9,30.21,NW,315,2.0,2.3,33,0.00,CLR,,0.00,WeatherDisplay:10.37,2013-05-26 21:13:00,
2013-05-26 17:18:00,79.3,46.9,30.21,SW,225,0.9,2.3,32,0.00,CLR,,0.00,WeatherDisplay:10.37,2013-05-26 21:18:00,
2013-05-26 17:23:00,79.0,46.6,30.21,WNW,292,2.0,3.5,32,0.00,CLR,,0.00,WeatherDisplay:10.37,2013-05-26 21:23:00,
2013-05-26 17:28:00,78.8,47.3,30.21,ENE,68,0.0,2.0,33,0.00,CLR,,0.00,WeatherDisplay:10.37,2013-05-26 21:28:00,
2013-05-26 17:33:00,77.9,45.7,30.21,WSW,248,2.9,4.6,32,0.00,CLR,,0.00,WeatherDisplay:10.37,2013-05-26 21:33:00,
2013-05-26 17:38:00,77.5,45.3,30.21,NE,45,1.4,2.9,32,0.00,CLR,,0.00,WeatherDisplay:10.37,2013-05-26 21:38:00,
2013-05-26 17:43:00,76.6,45.4,30.21,West,270,0.9,2.3,33,0.00,CLR,,0.00,WeatherDisplay:10.37,2013-05-26 21:43:00,
2013-05-26 17:48:00,76.6,45.4,30.21,South,180,2.0,2.3,33,0.00,CLR,,0.00,WeatherDisplay:10.37,2013-05-26 21:48:00,
2013-05-26 17:53:00,76.1,45.7,30.21,West,270,3.1,3.5,34,0.00,CLR,,0.00,WeatherDisplay:10.37,2013-05-26 21:53:00,
2013-05-26 17:58:00,75.6,45.2,30.21,WSW,248,2.4,3.5,34,0.00,CLR,,0.00,WeatherDisplay:10.37,2013-05-26 21:58:00,
2013-05-26 18:03:00,75.6,45.2,30.21,WSW,248,0.9,1.2,34,0.00,CLR,,0.00,WeatherDisplay:10.37,2013-05-26 22:03:00,
2013-05-26 18:08:00,75.2,44.9,30.21,NW,315,1.2,1.6,34,0.00,CLR,,0.00,WeatherDisplay:10.37,2013-05-26 22:08:00,
2013-05-26 18:13:00,74.5,45.0,30.21,WSW,248,2.0,2.6,35,0.00,CLR,,0.00,WeatherDisplay:10.37,2013-05-26 22:13:00,
2013-05-26 18:18:00,74.3,44.9,30.21,West,270,0.0,0.0,35,0.00,CLR,,0.00,WeatherDisplay:10.37,2013-05-26 22:18:00,
2013-05-26 18:23:00,74.1,44.7,30.21,West,270,1.4,2.3,35,0.00,CLR,,0.00,WeatherDisplay:10.37,2013-05-26 22:23:00,
2013-05-26 18:28:00,73.8,44.4,30.21,West,270,0.9,1.2,35,0.00,CLR,,0.00,WeatherDisplay:10.37,2013-05-26 22:28:00,
2013-05-26 18:33:00,73.6,45.0,30.21,West,270,0.0,0.0,36,0.00,CLR,,0.00,WeatherDisplay:10.37,2013-05-26 22:33:00,
2013-05-26 18:38:00,73.4,44.8,30.21,WNW,292,0.0,0.0,36,0.00,CLR,,0.00,WeatherDisplay:10.37,2013-05-26 22:38:00,
2013-05-26 18:43:00,73.0,45.2,30.21,West,270,0.0,0.0,37,0.00,CLR,,0.00,WeatherDisplay:10.37,2013-05-26 22:43:00,
2013-05-26 18:48:00,72.5,44.0,30.21,NW,315,0.9,1.2,36,0.00,CLR,,0.00,WeatherDisplay:10.37,2013-05-26 22:48:00,
2013-05-26 18:53:00,72.3,45.3,30.21,West,270,1.6,2.3,38,0.00,CLR,,0.00,WeatherDisplay:10.37,2013-05-26 22:53:00,
2013-05-26 18:58:00,72.0,44.3,30.21,SSE,158,0.0,0.0,37,0.00,CLR,,0.00,WeatherDisplay:10.37,2013-05-26 22:58:00,
2013-05-26 19:03:00,71.8,44.8,30.21,South,180,1.2,2.3,38,0.00,CLR,,0.00,WeatherDisplay:10.37,2013-05-26 23:03:00,
2013-05-26 19:08:00,71.4,44.5,30.21,SSW,202,1.4,1.4,38,0.00,CLR,,0.00,WeatherDisplay:10.37,2013-05-26 23:08:00,
2013-05-26 19:13:00,71.1,45.5,30.21,WSW,248,0.0,0.0,40,0.00,CLR,,0.00,WeatherDisplay:10.37,2013-05-26 23:13:00,
2013-05-26 19:18:00,70.5,44.4,30.21,NW,315,0.0,0.0,39,0.00,CLR,,0.00,WeatherDisplay:10.37,2013-05-26 23:18:00,
2013-05-26 19:23:00,70.0,44.5,30.21,SSE,158,0.0,0.0,40,0.00,CLR,,0.00,WeatherDisplay:10.37,2013-05-26 23:23:00,
2013-05-26 19:28:00,69.6,45.5,30.21,SSE,158,0.0,0.0,42,0.00,CLR,,0.00,WeatherDisplay:10.37,2013-05-26 23:28:00,
2013-05-26 19:33:00,69.3,45.8,30.21,SSE,158,0.0,0.0,43,0.00,CLR,,0.00,WeatherDisplay:10.37,2013-05-26 23:33:00,
2013-05-26 19:38:00,68.7,45.9,30.24,SSE,158,0.0,0.0,44,0.00,CLR,,0.00,WeatherDisplay:10.37,2013-05-26 23:38:00,
2013-05-26 19:43:00,68.0,46.4,30.24,SSE,158,0.0,0.0,46,0.00,CLR,,0.00,WeatherDisplay:10.37,2013-05-26 23:43:00,
2013-05-26 19:48:00,67.6,46.7,30.24,SSE,158,0.0,0.0,47,0.00,CLR,,0.00,WeatherDisplay:10.37,2013-05-26 23:48:00,
2013-05-26 19:53:00,67.1,47.3,30.21,SSE,158,0.0,0.0,49,0.00,CLR,,0.00,WeatherDisplay:10.37,2013-05-26 23:53:00,
2013-05-26 19:58:00,66.4,46.6,30.21,SSE,158,0.0,0.0,49,0.00,CLR,,0.00,WeatherDisplay:10.37,2013-05-26 23:58:00,
2013-05-26 20:03:00,66.0,47.4,30.21,SSE,158,0.0,0.0,51,0.00,CLR,,0.00,WeatherDisplay:10.37,2013-05-27 00:03:00,
2013-05-26 20:08:00,65.5,47.4,30.18,SSE,158,0.0,0.0,52,0.00,CLR,,0.00,WeatherDisplay:10.37,2013-05-27 00:08:00,
2013-05-26 20:13:00,64.9,47.4,30.18,SSE,158,0.0,0.0,53,0.00,CLR,,0.00,WeatherDisplay:10.37,2013-05-27 00:13:00,
2013-05-26 20:18:00,64.6,47.6,30.18,SSE,158,0.0,0.0,54,0.00,CLR,,0.00,WeatherDisplay:10.37,2013-05-27 00:18:00,
2013-05-26 20:23:00,64.0,49.0,30.21,SSE,158,0.0,0.0,58,0.00,CLR,,0.00,WeatherDisplay:10.37,2013-05-27 00:23:00,
2013-05-26 20:28:00,63.5,49.4,30.21,SSE,158,0.0,0.0,60,0.00,CLR,,0.00,WeatherDisplay:10.37,2013-05-27 00:28:00,
2013-05-26 20:33:00,63.1,49.0,30.21,SSE,158,0.0,0.0,60,0.00,CLR,,0.00,WeatherDisplay:10.37,2013-05-27 00:33:00,
2013-05-26 20:38:00,62.8,49.1,30.18,SSE,158,0.0,0.0,61,0.00,CLR,,0.00,WeatherDisplay:10.37,2013-05-27 00:38:00,
2013-05-26 20:43:00,62.4,49.7,30.18,SSE,158,0.0,0.0,63,0.00,CLR,,0.00,WeatherDisplay:10.37,2013-05-27 00:43:00,
2013-05-26 20:48:00,62.1,49.3,30.18,SSE,158,0.0,0.0,63,0.00,CLR,,0.00,WeatherDisplay:10.37,2013-05-27 00:48:00,
2013-05-26 20:53:00,61.9,49.6,30.21,SSE,158,0.0,0.0,64,0.00,CLR,,0.00,WeatherDisplay:10.37,2013-05-27 00:53:00,
2013-05-26 20:58:00,61.7,50.2,30.21,SSE,158,0.0,0.0,66,0.00,CLR,,0.00,WeatherDisplay:10.37,2013-05-27 00:58:00,
2013-05-26 21:03:00,61.3,50.3,30.21,SW,225,0.0,1.2,67,0.00,CLR,,0.00,WeatherDisplay:10.37,2013-05-27 01:03:00,
2013-05-26 21:08:00,61.2,50.1,30.21,West,270,0.9,1.2,67,0.00,CLR,,0.00,WeatherDisplay:10.37,2013-05-27 01:08:00,
2013-05-26 21:13:00,60.8,50.2,30.21,West,270,0.0,0.0,68,0.00,CLR,,0.00,WeatherDisplay:10.37,2013-05-27 01:13:00,
2013-05-26 21:18:00,60.6,49.6,30.21,West,270,0.0,0.0,67,0.00,CLR,,0.00,WeatherDisplay:10.37,2013-05-27 01:18:00,
2013-05-26 21:23:00,60.4,50.6,30.24,West,270,0.0,0.0,70,0.00,CLR,,0.00,WeatherDisplay:10.37,2013-05-27 01:23:00,
2013-05-26 21:28:00,60.1,50.6,30.24,West,270,0.0,0.0,71,0.00,CLR,,0.00,WeatherDisplay:10.37,2013-05-27 01:28:00,
2013-05-26 21:33:00,59.7,51.0,30.24,West,270,0.0,0.0,73,0.00,CLR,,0.00,WeatherDisplay:10.37,2013-05-27 01:33:00,
2013-05-26 21:38:00,59.4,50.3,30.24,West,270,0.0,0.0,72,0.00,CLR,,0.00,WeatherDisplay:10.37,2013-05-27 01:38:00,
2013-05-26 21:43:00,59.2,50.5,30.24,West,270,0.0,0.0,73,0.00,CLR,,0.00,WeatherDisplay:10.37,2013-05-27 01:43:00,
2013-05-26 21:48:00,59.0,50.7,30.24,West,270,0.0,0.0,74,0.00,CLR,,0.00,WeatherDisplay:10.37,2013-05-27 01:48:00,
2013-05-26 21:53:00,58.6,51.1,30.24,West,270,0.0,0.0,76,0.00,CLR,,0.00,WeatherDisplay:10.37,2013-05-27 01:53:00,
2013-05-26 21:58:00,58.5,50.6,30.24,West,270,0.0,0.0,75,0.00,CLR,,0.00,WeatherDisplay:10.37,2013-05-27 01:58:00,
2013-05-26 22:03:00,58.3,51.4,30.24,West,270,0.0,0.0,78,0.00,CLR,,0.00,WeatherDisplay:10.37,2013-05-27 02:03:00,
2013-05-26 22:08:00,58.1,50.9,30.27,West,270,0.0,0.0,77,0.00,CLR,,0.00,WeatherDisplay:10.37,2013-05-27 02:08:00,
2013-05-26 22:13:00,58.1,51.6,30.27,West,270,0.0,0.0,79,0.00,CLR,,0.00,WeatherDisplay:10.37,2013-05-27 02:13:00,
2013-05-26 22:18:00,57.9,51.4,30.27,West,270,0.0,0.0,79,0.00,CLR,,0.00,WeatherDisplay:10.37,2013-05-27 02:18:00,
2013-05-26 22:23:00,57.7,51.6,30.27,West,270,0.0,0.0,80,0.00,CLR,,0.00,WeatherDisplay:10.37,2013-05-27 02:23:00,
2013-05-26 22:28:00,57.6,51.4,30.27,West,270,0.0,0.0,80,0.00,CLR,,0.00,WeatherDisplay:10.37,2013-05-27 02:28:00,
2013-05-26 22:33:00,57.4,51.6,30.27,West,270,0.0,0.0,81,0.00,CLR,,0.00,WeatherDisplay:10.37,2013-05-27 02:33:00,
2013-05-26 22:38:00,57.2,51.4,30.24,West,270,0.0,0.0,81,0.00,CLR,,0.00,WeatherDisplay:10.37,2013-05-27 02:38:00,
2013-05-26 22:43:00,57.2,51.4,30.24,West,270,0.0,0.0,81,0.00,CLR,,0.00,WeatherDisplay:10.37,2013-05-27 02:43:00,
2013-05-26 22:48:00,57.0,51.9,30.24,West,270,0.0,0.0,83,0.00,CLR,,0.00,WeatherDisplay:10.37,2013-05-27 02:48:00,
2013-05-26 22:53:00,56.8,51.7,30.27,West,270,0.0,0.0,83,0.00,CLR,,0.00,WeatherDisplay:10.37,2013-05-27 02:53:00,
2013-05-26 22:58:00,56.8,51.7,30.27,West,270,0.0,0.0,83,0.00,CLR,,0.00,WeatherDisplay:10.37,2013-05-27 02:58:00,
2013-05-26 23:03:00,56.7,51.9,30.27,West,270,0.0,0.0,84,0.00,CLR,,0.00,WeatherDisplay:10.37,2013-05-27 03:03:00,
2013-05-26 23:08:00,56.5,51.7,30.27,West,270,0.0,0.0,84,0.00,CLR,,0.00,WeatherDisplay:10.37,2013-05-27 03:08:00,
2013-05-26 23:13:00,56.5,51.7,30.27,West,270,0.0,0.0,84,0.00,CLR,,0.00,WeatherDisplay:10.37,2013-05-27 03:13:00,
2013-05-26 23:18:00,56.3,51.5,30.27,West,270,0.0,0.0,84,0.00,CLR,,0.00,WeatherDisplay:10.37,2013-05-27 03:18:00,
2013-05-26 23:23:00,56.1,51.7,30.24,West,270,0.0,0.0,85,0.00,CLR,,0.00,WeatherDisplay:10.37,2013-05-27 03:23:00,
2013-05-26 23:28:00,55.9,51.5,30.24,West,270,0.0,0.0,85,0.00,CLR,,0.00,WeatherDisplay:10.37,2013-05-27 03:28:00,
2013-05-26 23:33:00,55.8,51.3,30.24,West,270,0.0,0.0,85,0.00,CLR,,0.00,WeatherDisplay:10.37,2013-05-27 03:33:00,
2013-05-26 23:38:00,55.6,51.5,30.27,West,270,0.0,0.0,86,0.00,CLR,,0.00,WeatherDisplay:10.37,2013-05-27 03:38:00,
2013-05-26 23:43:00,55.4,51.3,30.27,West,270,0.0,0.0,86,0.00,CLR,,0.00,WeatherDisplay:10.37,2013-05-27 03:43:00,
2013-05-26 23:48:00,55.2,51.7,30.27,West,270,0.0,0.0,88,0.00,CLR,,0.00,WeatherDisplay:10.37,2013-05-27 03:48:00,
2013-05-26 23:53:00,55.0,51.5,30.27,West,270,0.0,0.0,88,0.00,CLR,,0.00,WeatherDisplay:10.37,2013-05-27 03:53:00,
2013-05-26 23:58:00,55.0,51.9,30.27,West,270,0.0,0.0,89,0.00,CLR,,0.00,WeatherDisplay:10.37,2013-05-27 03:58:00,